Hourly Data Report for October 23, 2020

RED LAKE A
ONTARIO
Current Station Operator: NAVCAN

51°04'02.000" N
93°47'35.000" W
385.90 m
6016971
YRL

Download Data

Hourly Data (October 2020)
Hourly Data Report for October 23, 2020
TIME Temp Definition
°C
Dew Point Definition
°C
Rel Hum Definition
%
Wind Dir Definition
10's deg

Wind Spd Definition
km/h
Visibility Definition
km
Stn Press Definition
kPa
Hmdx Definition


Wind Chill Definition


Weather Definition


00:00 -7.6 -8.5 93 1 1 LegendMM 98.05   -8 LegendNANA
01:00 -7.2 -7.7 96 10 1 LegendMM 98.00   -8 LegendNANA
02:00 -8.4 -8.7 97 0 1 LegendMM 97.99   -9 LegendNANA
03:00 -8.6 -9.1 96 13 4 LegendMM 97.99   -11 LegendNANA
04:00 -7.1 -7.3 98 0 1 LegendMM 97.98   -8 LegendNANA
05:00 -5.8 -5.8 100 11 4 LegendMM 97.98   -8 LegendNANA
06:00 -5.5 -5.8 97 21 3 LegendMM 97.97   -7 LegendNANA
07:00 -2.9 -6.8 75 24 9 LegendMM 97.94   -6 LegendNANA
08:00 -2.0 -5.4 78 27 10 LegendMM 97.92   -6 LegendNANA
09:00 -1.4 -5.4 74 27 16 LegendMM 97.90   -6 LegendNANA
10:00 -1.0 -6.8 65 28 13 LegendMM 97.84   -5 LegendNANA
11:00 0.2 -7.1 58 26 15 LegendMM 97.79     LegendNANA
12:00 -0.6 -7.8 58 27 13 LegendMM 97.73   -5 LegendNANA
13:00 -0.8 -7.0 63 25 13 LegendMM 97.69   -5 LegendNANA
14:00 -0.8 -6.2 67 27 10 LegendMM 97.63   -4 LegendNANA
15:00 -0.6 -7.2 61 29 15 LegendMM 97.59   -5 LegendNANA
16:00 -1.4 -5.2 76 31 10 LegendMM 97.59   -5 LegendNANA
17:00 -1.8 -6.0 73 28 14 LegendMM 97.58   -6 LegendNANA
18:00 -2.2 -6.0 75 27 8 LegendMM 97.57   -5 LegendNANA
19:00 -2.9 -4.1 92 29 18 LegendMM 97.58   -9 LegendNANA
20:00 -2.6 -4.0 90 28 13 LegendMM 97.55   -7 LegendNANA
21:00 -2.8 -5.0 84 29 17 LegendMM 97.54   -8 LegendNANA
22:00 -3.0 -5.1 86 31 17 LegendMM 97.56   -9 LegendNANA
23:00 -3.0 -5.0 86 31 10 LegendMM 97.55   -7 LegendNANA

Notes on Data Quality.

Legend

  • E = Estimated
  • M = Missing
  • NA = Not Available*
  • [empty] = Indicates an unobserved value
Date modified: